Location: Mount Cross
(36.6390°N, 79.4878°W)
Time: 10:09:15
(UTC+00:00)

Transit 2A - All Passes

Search period start: 29 March 2023 00:00
Search period end: 08 April 2023 00:00
Orbit: 591 x 964 km, 66.7° (Epoch: 28 March)

Date Brightness Start Highest point End Pass type
(mag) Time Alt. Az. Time Alt. Az. Time Alt. Az.
29 Mar - 07:29:33 10° ESE 07:30:44 11° E 07:31:56 10° E visible
29 Mar - 09:07:34 10° SSW 09:12:51 85° WNW 09:18:47 10° NNE visible
29 Mar - 10:54:03 10° WNW 10:57:05 14° NW 11:00:15 10° N daylight
29 Mar - 16:16:39 10° NNE 16:18:00 11° NE 16:19:22 10° NE daylight
29 Mar - 17:56:30 10° NNW 18:02:44 52° ENE 18:08:43 10° SE daylight
29 Mar - 19:40:36 10° NW 19:45:33 25° WSW 19:50:19 10° SSW daylight
30 Mar - 08:33:04 10° SSW 08:38:16 65° ESE 08:44:05 10° NNE visible
30 Mar - 10:18:04 10° W 10:22:05 20° NW 10:26:22 10° N visible
30 Mar - 17:22:05 10° NNW 17:27:58 37° NE 17:33:39 10° ESE daylight
30 Mar - 19:05:26 10° NW 19:11:08 36° WSW 19:16:36 10° S daylight
31 Mar - 07:58:51 10° S 08:03:47 42° ESE 08:09:15 10° NE visible
31 Mar - 09:42:31 10° WSW 09:47:10 27° NW 09:52:12 10° N visible
31 Mar - 16:47:45 10° N 16:53:07 27° NE 16:58:20 10° ESE daylight
31 Mar - 18:30:31 10° NW 18:36:40 53° WSW 18:42:31 10° S daylight
01 Apr - 07:24:55 10° SSE 07:29:21 28° ESE 07:34:12 10° NE visible
01 Apr - 09:07:17 10° WSW 09:12:20 38° NW 09:17:53 10° NNE visible
01 Apr - 16:13:36 10° N 16:18:12 20° NE 16:22:42 10° E daylight
01 Apr - 17:55:45 10° NNW 18:02:07 76° WSW 18:08:10 10° SSE daylight
02 Apr - 06:51:26 10° SE 06:55:01 18° ESE 06:58:49 10° ENE visible
02 Apr - 08:32:17 10° SW 08:37:34 56° WNW 08:43:25 10° NNE visible
02 Apr - 10:21:24 10° NW 10:22:14 10° NW 10:23:06 10° NNW visible
02 Apr - 15:39:40 10° N 15:43:11 15° NE 15:46:39 10° ENE daylight
02 Apr - 17:21:06 10° NNW 17:27:30 76° ENE 17:33:35 10° SSE daylight
02 Apr - 19:06:24 10° WNW 19:09:55 16° WSW 19:13:21 10° SW daylight
03 Apr - 06:19:00 10° ESE 06:20:43 11° E 06:22:29 10° E visible
03 Apr - 07:57:32 10° SSW 08:02:53 82° WNW 08:08:52 10° NNE visible
03 Apr - 09:44:08 10° WNW 09:47:09 14° NW 09:50:18 10° N visible
03 Apr - 15:06:29 10° NNE 15:08:06 11° NE 15:09:43 10° NE daylight
03 Apr - 16:46:33 10° NNW 16:52:48 54° ENE 16:58:45 10° SE daylight
03 Apr - 18:30:44 10° NW 18:35:35 24° WSW 18:40:13 10° SSW daylight
04 Apr - 07:23:00 10° SSW 07:28:17 68° ESE 07:34:11 10° NNE visible
04 Apr - 09:08:07 10° W 09:12:08 20° NW 09:16:25 10° N visible
04 Apr - 16:12:07 10° NNW 16:18:02 38° NE 16:23:43 10° ESE daylight
04 Apr - 17:55:32 10° NW 18:01:10 35° WSW 18:06:32 10° S daylight
05 Apr - 06:48:45 10° S 06:53:47 44° ESE 06:59:21 10° NE visible
05 Apr - 08:32:32 10° WSW 08:37:12 27° NW 08:42:15 10° N visible
05 Apr - 15:37:47 10° N 15:43:11 28° NE 15:48:24 10° ESE daylight
05 Apr - 17:20:35 10° NW 17:26:42 51° WSW 17:32:28 10° S daylight
06 Apr - 06:14:46 10° SSE 06:19:20 29° ESE 06:24:19 10° NE visible
06 Apr - 07:57:16 10° WSW 08:02:21 38° NW 08:07:56 10° NNE visible
06 Apr - 15:03:36 10° N 15:08:15 21° NE 15:12:48 10° E daylight
06 Apr - 16:45:48 10° NNW 16:52:09 74° WSW 16:58:08 10° SSE daylight
07 Apr - 05:41:13 10° SSE 05:44:59 19° ESE 05:48:59 10° ENE visible
07 Apr - 07:22:15 10° SW 07:27:34 54° WNW 07:33:28 10° NNE visible
07 Apr - 09:11:37 10° NW 09:12:17 10° NW 09:12:57 10° NNW visible
07 Apr - 14:29:38 10° N 14:33:15 15° NE 14:36:47 10° ENE daylight
07 Apr - 16:11:08 10° NNW 16:17:33 79° ENE 16:23:34 10° SSE daylight
07 Apr - 17:56:36 10° WNW 17:59:55 15° W 18:03:09 10° SW daylight
